Back to catalog

ONEWEB-0385

AliveCommunicationsPO
NORAD 49311·PAYLOAD·🇬🇧 United Kingdom

Launched Oct 14, 2021 from Vostochny Cosmodrome

Loading…

Next Passes (next 24 hours)

TLE

FreshSource: CelesTrak SupGP

Epoch: Sep 14, 2026, 13:19 UTC

1 49311C 21090AJ  26257.55537454 -.00000239  00000+0 -58953-3 0  2575
2 49311  87.9141 256.6122 0002138  93.8019  18.6022 13.20771946    18

Track ONEWEB-0385 in real time with AllMySat

Download on the App Store